TOURFACTS.DK  
Stats and Facts from Tour de France.

Tour de France 2019 starts in 323 days
  Riders   Stages   Teams   Summits   Yearly  


 
Search by year

After 2018 - Stage 21:
 15000 starters.
  5165 different riders.
  638 teams.
  2253 stages.
  456 restdays.
  442940.60 km.
  5684 abandonnees.


Top 3
GC
Geraint Thomas83:17:13
Tom Dumoulin83:19:04
Christopher Froome83:19:37
Climb
Julian Alaphilippe170 pt.
Warren Barguil91 pt.
Rafal Majka76 pt.
Sprint
Peter Sagan477 pt.
Alexander Kristoff246 pt.
Arnaud Démare203 pt.
Youth
Pierre-Roger Latou..83:39:26
Egan Bernal83:45:05
Guillaume Martin84:01:31
Facts from Tour de France 1949
  |   Stages.  |   Stage winners.  |   Days in yellow  |   Average speed.  |   Route.  |   Teams.  |   All riders.  |   Rookies.  |  

  |   Withdrawls.  |   GC.  |   Polka  |   Green  |   White  |   Summits. (In tour)  |   Miscellaneous.  |  

Stage 5 on 04 - 07 - 1949
         Owning:    Jacques Marinelli    
Pick a stage:  1 2 3 4 5 6 7 8 9 10 11 12 13 14 15 16 17 18 19 20 21
  RouenSaint-Malo | Dist: 293.00 km.

Average speed for all riders in stage:  33,273 km./hr.
    Place:Name:Team:Time:Km/h:
1
SUIFerdi KüblerCHESwitzerland08:27:13  +  00:00:00=34,660 
2
FRABernard GauthierFRAFrance08:27:13  +  00:00:00=34,660 
3
ITAGiuseppe TaccaFRAIle De France08:27:13  +  00:00:00=34,660 
44 FRAJacques MarinelliFRAIle De France08:27:13  +  00:00:00=34,660 
55 BELMarcel DupontBELAiglons Belges08:27:13  +  00:00:00=34,660 
66 FRAJean RobicFRAWest-North08:32:43  +  00:05:30=34,288 
77 FRALouis CaputFRAIle De France08:32:43  +  00:05:30=34,288 
88 BELStan OckersBELBelgium08:32:43  +  00:05:30=34,288 
99 ITAGino BartaliITAItaly08:32:43  +  00:05:30=34,288 
1010 ITAGino SciardisITAItaly08:32:43  +  00:05:30=34,288 
1111 FRAPierre CoganFRAWest-North08:32:43  +  00:05:30=34,288 
1212 FRAJean-Marie GoasmatFRAWest-North08:32:43  +  00:05:30=34,288 
1313 FRAHenri MassalFRACenter-South West08:32:43  +  00:05:30=34,288 
1414 ITAFermo CamelliniFRASouth-East08:32:43  +  00:05:30=34,288 
1515 ITAVittorio MagniITACadetti Italiens08:32:43  +  00:05:30=34,288 
1616 LUXJean GoldschmitLUXLuxembourg08:35:35  +  00:08:22=34,097 
1717 ITAGiuseppe AusendaITACadetti Italiens08:35:35  +  00:08:22=34,097 
1818 BELJoseph VerhaertBELAiglons Belges08:37:35  +  00:10:22=33,966 
1919 FRAMaurice DiotFRAFrance08:37:55  +  00:10:42=33,944 
2020 SUIPierre BrambillaFRASouth-East08:37:55  +  00:10:42=33,944 
2121 FRARené ViettoFRAFrance08:39:35  +  00:12:22=33,835 
2222 BELRoger LambrechtBELBelgium08:45:37  +  00:18:24=33,446 
2323 FRARoger LevequeFRACenter-South West08:45:42  +  00:18:29=33,441 
2424 FRAGuy LapébieFRAFrance08:45:45  +  00:18:32=33,438 
2525 FRARoger Le NizerhyFRAWest-North08:45:45  +  00:18:32=33,438 
2626 FRAAntonin RollandFRASouth-East08:45:48  +  00:18:35=33,435 
2727 FRALucien TeisseireFRAFrance08:45:56  +  00:18:43=33,426 
2828 BELFlorent MathieuBELBelgium08:45:56  +  00:18:43=33,426 
2929 LUXMarcel ErnzerLUXLuxembourg08:45:56  +  00:18:43=33,426 
3030 FRAAndré BruléFRAIle De France08:45:56  +  00:18:43=33,426 
3131 FRAAlbert DolhatsFRACenter-South West08:45:56  +  00:18:43=33,426 
3232 LUXJean KirchenLUXLuxembourg08:45:56  +  00:18:43=33,426 
3333 FRAPaul PineauFRACenter-South West08:45:56  +  00:18:43=33,426 
3434 NEDWim De RuyterNLDHolland08:45:56  +  00:18:43=33,426 
3535 NEDFrans PauwelsNLDHolland08:45:56  +  00:18:43=33,426 
3636 ITAFausto CoppiITAItaly08:45:56  +  00:18:43=33,426 
3737 BELDésiré KeteleerBELBelgium08:45:56  +  00:18:43=33,426 
3838 BELRaymond ImpanisBELBelgium08:45:56  +  00:18:43=33,426 
3939 FRAAnge Le StratFRAWest-North08:45:56  +  00:18:43=33,426 
4040 ITASylvio PedroniITACadetti Italiens08:45:56  +  00:18:43=33,426 
4141 ITAArmando PeverelliITACadetti Italiens08:45:56  +  00:18:43=33,426 
4242 BELMarcel De MulderBELAiglons Belges08:45:56  +  00:18:43=33,426 
4343 BELJacques GeusBELAiglons Belges08:45:56  +  00:18:43=33,426 
4444 ITAAlfredo MartiniITACadetti Italiens08:45:56  +  00:18:43=33,426 
4545 ITASerifano BiagioniITAItaly08:45:56  +  00:18:43=33,426 
4646 FRALouis DeprezFRAFrance08:45:56  +  00:18:43=33,426 
4747 FRARobert ChapatteFRAFrance08:45:56  +  00:18:43=33,426 
4848 FRALouison BobetFRAFrance08:45:56  +  00:18:43=33,426 
4949 FRARaphaël GeminianiFRAFrance08:45:56  +  00:18:43=33,426 
5050 FRAJean ReyFRASouth-East08:45:56  +  00:18:43=33,426 
5151 FRAJean-Apotre LazaridesFRAFrance08:45:56  +  00:18:43=33,426 
5252 FRALucien LazaridesFRAFrance08:45:56  +  00:18:43=33,426 
5353 LUXJean DiederichLUXLuxembourg08:45:56  +  00:18:43=33,426 
5454 ITABruno PasquiniITAItaly08:45:56  +  00:18:43=33,426 
5555 BELBriek SchotteBELBelgium08:45:56  +  00:18:43=33,426 
5656 ITAÉdouard FachleitnerFRASouth-East08:45:56  +  00:18:43=33,426 
5757 ITANello LaurediFRASouth-East08:45:56  +  00:18:43=33,426 
5858 SUIGeorges AeschlimannCHESwitzerland08:45:56  +  00:18:43=33,426 
5959 ESPJosé SerraESPSpain08:46:25  +  00:19:12=33,396 
6060 FRAAndre MahéFRAWest-North08:50:19  +  00:23:06=33,150 
6161 ITAAdolphe DeleddaFRASouth-East08:50:19  +  00:23:06=33,150 
6262 FRAGeorges MartinFRASouth-East08:50:19  +  00:23:06=33,150 
6363 ITAEttore MilanoITAItaly08:51:10  +  00:23:57=33,097 
6464 SUIGottfried WeilenmannCHESwitzerland08:51:10  +  00:23:57=33,097 
6565 FRAMarcel DussaultFRACenter-South West08:53:38  +  00:26:25=32,944 
6666 FRARobert DesbatsFRACenter-South West08:55:47  +  00:28:34=32,812 
6767 FRAGeorges RamouluxFRACenter-South West08:55:47  +  00:28:34=32,812 
6868 NEDHenk de HoogNLDHolland09:02:09  +  00:34:56=32,426 
6969 BELMarcel HendrickxBELAiglons Belges09:02:09  +  00:34:56=32,426 
7070 NEDHuub SijenNLDHolland09:02:09  +  00:34:56=32,426 
7171 FRACamille DanguillaumeFRAFrance09:02:09  +  00:34:56=32,426 
7272 BELNorbert CallensBELBelgium09:02:09  +  00:34:56=32,426 
7373 ITAAngelo BrignoleITAItaly09:02:09  +  00:34:56=32,426 
7474 GERCésar MarcelakFRAWest-North09:02:09  +  00:34:56=32,426 
7575 ITAMario RicciITAItaly09:02:09  +  00:34:56=32,426 
7676 FRAEmile IdéeFRAIle De France09:02:09  +  00:34:56=32,426 
7777 BELRik Van SteenbergenBELBelgium09:02:09  +  00:34:56=32,426 
7878 BELEdward Van DijckBELBelgium09:02:09  +  00:34:56=32,426 
7979 FRARaymond LucasFRAIle De France09:02:09  +  00:34:56=32,426 
8080 FRAPaul GiguetFRASouth-East09:05:32  +  00:38:19=32,225 
8181 SUIRoger AeschlimannCHESwitzerland09:05:32  +  00:38:19=32,225 
8282 SUIErnst StettlerCHESwitzerland09:05:32  +  00:38:19=32,225 
8383 SUIHans HutmacherCHESwitzerland09:05:32  +  00:38:19=32,225 
8484 BELMarcel KintBELBelgium09:05:32  +  00:38:19=32,225 
8585 BELRoger GhyselinckBELBelgium09:05:32  +  00:38:19=32,225 
8686 MARCustodio Dos ReisFRACenter-South West09:05:32  +  00:38:19=32,225 
8787 FRAJean BlancFRACenter-South West09:05:32  +  00:38:19=32,225 
8888 ITAGiovanni CorrieriITAItaly09:05:32  +  00:38:19=32,225 
8989 ITAGuido De SantiITAItaly09:05:32  +  00:38:19=32,225 
9090 ITAVincenzo RosselloITAItaly09:05:32  +  00:38:19=32,225 
9191 ITALuciano PezziITAItaly09:05:32  +  00:38:19=32,225 
9292 FRAEdouard MullerFRAIle De France09:05:32  +  00:38:19=32,225 

Withdrawls: 11
 
Rider
Team
Reason
50  NEDAndré De KorverNLDHollandDid not finish
52  NEDJan LambrichsNLDHollandDid not finish
55  ESPJulián BerrenderoESPSpainDid not finish
57  ESPDalmácio LangaricaESPSpainDid not finish
58  ESPEmilio RodriguezESPSpainDid not finish
59  ESPBernardo RuízESPSpainDid not finish
76  FRADominique ForliniFRAIle De FranceDid not finish
82  ITAAttilio RedolfiFRAIle De FranceDid not finish
87  GEREdouard KlabinskiFRAWest-NorthDid not finish
94  FRARoger PontetFRAWest-NorthDid not finish
116  FRAPierre MolinerisFRASouth-EastDid not finish
Todays birthdays.

1874  Achille Colas
1895  Lucien Meunier
1902  Lazare Venot
1915  Albert Gijsen
1924  Marcel Zelasco
1930  Juan Campillo
1931  Jean-Claude Skerl
1934  Jean Selic
1935  Arnaldo Pambianco
1955  Mario Beccia
1956  Daniel Willems
1957  Dominique Sanders
1959  Marc Sergeant
1960  Éric Caritoux
1963  Jelle Nijdam
1971  Arnaud Prétot
1980  Piet Rooijakkers